Observations for Trim Market St
| Time | AQI | Temp °C | Hum % | Pres Pa | CO μg/m³ | H₂S μg/m³ | NO μg/m³ | NO₂ μg/m³ | O₃ μg/m³ | SO₂ μg/m³ | PM1 μg/m³ | PM2.5 μg/m³ | PM10 μg/m³ |
|---|---|---|---|---|---|---|---|---|---|---|---|---|---|
| Tuesday 18 August 2026 | |||||||||||||
| 19:57 | 2 | 16.7 | 77 | 2,147,483,647 | 0.29 | 0 | 2.03 | 20.33 | 60.99 | 0 | 2.14 | 3.19 | 5.78 |
| 19:56 | 2 | 16.7 | 77 | 2,147,483,647 | 0.43 | 0 | 2.04 | 25.83 | 59.66 | 0 | 2.85 | 5.1 | 9.28 |
| 19:55 | 2 | 16.7 | 77 | 2,147,483,647 | 0.4 | 0 | 2.03 | 16.04 | 61.08 | 0 | 4.28 | 7 | 12.79 |
| 19:54 | 2 | 16.7 | 77 | 2,147,483,647 | 0.46 | 0 | 2.06 | 27.68 | 58.09 | 0 | 4.28 | 5.58 | 9.87 |
| 19:53 | 2 | 16.7 | 77 | 2,147,483,647 | 0.33 | 0 | 2.06 | 13.61 | 64.82 | 0 | 3.56 | 5.59 | 9.29 |
| 19:51 | 2 | 16.8 | 77 | 2,147,483,647 | 0.22 | 0 | 2.03 | 22.6 | 61.36 | 0 | 2.14 | 3.69 | 8.7 |
| 19:50 | 2 | 16.8 | 77 | 2,147,483,647 | 0.32 | 0 | 2.03 | 17.42 | 67.41 | 0 | 1.43 | 3.22 | 6.94 |
| 19:48 | 2 | 16.9 | 76 | 2,147,483,647 | 0.31 | 0.96 | 2.01 | 27.12 | 62.61 | 0 | 2.85 | 4.66 | 8.12 |
| 19:47 | 2 | 16.9 | 76 | 2,147,483,647 | 0.4 | 1.06 | 2.01 | 23.28 | 64.8 | 0 | 3.56 | 5.62 | 8.71 |
| 19:46 | 2 | 16.9 | 76 | 2,147,483,647 | 0.17 | 0 | 2.01 | 24.2 | 65.7 | 0 | 2.85 | 4.67 | 7.53 |
| 19:45 | 2 | 16.9 | 76 | 2,147,483,647 | 0.1 | 0 | 2.02 | 22 | 61.89 | 0 | 2.14 | 3.24 | 5.76 |
| 19:44 | 2 | 17 | 76 | 2,147,483,647 | 0.09 | 0 | 1.99 | 19.37 | 65.79 | 0 | 2.85 | 3.24 | 5.76 |
| 19:43 | 2 | 17 | 76 | 2,147,483,647 | 0.11 | 0 | 2 | 17.64 | 65.03 | 0 | 2.85 | 4.2 | 6.94 |
| 19:42 | 2 | 17 | 76 | 2,147,483,647 | 0.12 | 0.88 | 2 | 25.13 | 62.52 | 0 | 2.14 | 3.25 | 5.76 |
| 19:39 | 2 | 17.1 | 76 | 3,649 | 0.13 | 0 | 1.97 | 31.65 | 56.98 | 0 | 1.43 | 3.26 | 6.94 |
| 19:36 | 2 | 17.2 | 75 | 6,342 | 0.14 | 1.14 | 1.95 | 27.99 | 62.94 | 0 | 3.56 | 5.2 | 9.91 |
| 19:35 | 2 | 17.2 | 75 | 8,153 | 0.13 | 1.43 | 1.95 | 22.43 | 65.85 | 0 | 2.14 | 3.29 | 5.74 |
| 19:30 | 2 | 17.4 | 74 | 16,532 | 0.06 | 2.51 | 1.92 | 32.16 | 62.75 | 0 | 1.43 | 4.28 | 9.33 |
| 19:25 | 2 | 17.5 | 74 | 23,274 | 0.15 | 1.49 | 1.93 | 27.64 | 62.29 | 0 | 2.14 | 2.39 | 4.51 |
| 19:21 | 2 | 17.7 | 73 | 26,716 | 0.15 | 3.03 | 1.82 | 29.96 | 63.25 | 0 | 0 | 2.42 | 4.49 |